Time,TemperatureF,DewpointF,PressureIn,WindDirection,WindDirectionDegrees,WindSpeedMPH,WindSpeedGustMPH,Humidity,HourlyPrecipIn,Conditions,Clouds,dailyrainin,SoftwareType,DateUTC
2013-07-04 00:00:00,72.7,52.5,30.01,East,90,0.0,0.0,49,0.00,,BKN250,0.00,VWS V14.01,2013-07-04 05:00:00,
2013-07-04 00:05:00,72.5,52.8,30.01,East,90,0.0,0.0,50,0.00,,SCT250,0.00,VWS V14.01,2013-07-04 05:05:00,
2013-07-04 00:10:00,72.5,52.3,30.01,East,90,0.0,0.0,49,0.00,,SCT250,0.00,VWS V14.01,2013-07-04 05:10:00,
2013-07-04 00:15:00,72.5,52.3,30.01,East,85,2.0,5.0,49,0.00,,SCT250,0.00,VWS V14.01,2013-07-04 05:15:00,
2013-07-04 00:20:00,72.3,51.5,30.01,East,80,1.0,5.0,48,0.00,,SCT250,0.00,VWS V14.01,2013-07-04 05:20:00,
2013-07-04 00:25:00,72.1,51.9,30.01,ENE,73,5.0,5.0,49,0.00,,SCT250,0.00,VWS V14.01,2013-07-04 05:25:00,
2013-07-04 00:30:00,71.8,51.6,30.01,ENE,72,2.0,5.0,49,0.00,,SCT250,0.00,VWS V14.01,2013-07-04 05:30:00,
2013-07-04 00:35:00,71.5,51.4,30.01,ENE,71,1.0,5.0,49,0.00,,SCT250,0.00,VWS V14.01,2013-07-04 05:35:00,
2013-07-04 00:40:00,71.3,52.3,30.01,NE,55,2.0,5.0,51,0.00,,SCT250,0.00,VWS V14.01,2013-07-04 05:40:00,
2013-07-04 00:45:00,70.8,51.8,30.01,ENE,64,2.0,5.0,51,0.00,,SCT250,0.00,VWS V14.01,2013-07-04 05:45:00,
2013-07-04 00:50:00,70.4,52.5,30.01,ENE,64,5.0,5.0,53,0.00,,SCT250,0.00,VWS V14.01,2013-07-04 05:50:00,
2013-07-04 00:55:00,70.3,51.9,30.01,ENE,64,2.0,5.0,52,0.00,,SCT250,0.00,VWS V14.01,2013-07-04 05:55:00,
2013-07-04 01:00:00,70.3,52.4,30.01,ENE,66,3.0,5.0,53,0.00,,SCT250,0.00,VWS V14.01,2013-07-04 06:00:00,
2013-07-04 01:05:00,70.4,53.0,30.01,ENE,68,2.0,5.0,54,0.00,,SCT250,0.00,VWS V14.01,2013-07-04 06:05:00,
2013-07-04 01:10:00,70.8,52.8,30.01,ENE,69,2.0,5.0,53,0.00,,SCT250,0.00,VWS V14.01,2013-07-04 06:10:00,
2013-07-04 01:15:00,70.9,53.4,30.01,ENE,69,2.0,5.0,54,0.00,,SCT250,0.00,VWS V14.01,2013-07-04 06:15:00,
2013-07-04 01:20:00,70.9,53.4,30.01,ENE,69,2.0,5.0,54,0.00,,SCT250,0.00,VWS V14.01,2013-07-04 06:20:00,
2013-07-04 01:25:00,70.8,53.3,30.01,ENE,69,2.0,5.0,54,0.00,,SCT250,0.00,VWS V14.01,2013-07-04 06:25:00,
2013-07-04 01:30:00,70.4,53.0,30.01,ENE,69,2.0,5.0,54,0.00,,SCT250,0.00,VWS V14.01,2013-07-04 06:30:00,
2013-07-04 01:35:00,70.4,53.0,30.01,East,79,2.0,5.0,54,0.00,,SCT250,0.00,VWS V14.01,2013-07-04 06:35:00,
2013-07-04 01:40:00,70.6,53.2,30.01,ENE,68,2.0,5.0,54,0.00,,SCT250,0.00,VWS V14.01,2013-07-04 06:40:00,
2013-07-04 01:45:00,70.8,52.8,30.01,ENE,72,5.0,5.0,53,0.00,,SCT250,0.00,VWS V14.01,2013-07-04 06:45:00,
2013-07-04 01:51:00,70.8,53.3,30.01,East,82,2.0,5.0,54,0.00,,SCT250,0.00,VWS V14.01,2013-07-04 06:51:00,
2013-07-04 01:56:00,70.8,53.3,30.01,ENE,69,3.0,5.0,54,0.00,,SCT250,0.00,VWS V14.01,2013-07-04 06:56:00,
2013-07-04 02:01:00,70.9,52.9,30.00,ENE,62,2.0,5.0,53,0.00,,SCT250,0.00,VWS V14.01,2013-07-04 07:01:00,
2013-07-04 02:06:00,71.1,53.1,30.00,ENE,61,2.0,6.0,53,0.00,,SCT250,0.00,VWS V14.01,2013-07-04 07:06:00,
2013-07-04 02:11:00,70.8,53.3,30.00,ENE,62,2.0,6.0,54,0.00,,SCT250,0.00,VWS V14.01,2013-07-04 07:11:00,
2013-07-04 02:16:00,70.6,53.7,30.00,ENE,66,2.0,6.0,55,0.00,,SCT250,0.00,VWS V14.01,2013-07-04 07:16:00,
2013-07-04 02:21:00,70.3,54.8,30.00,ENE,68,0.0,6.0,58,0.00,,SCT250,0.00,VWS V14.01,2013-07-04 07:21:00,
2013-07-04 02:26:00,69.9,54.5,30.00,ENE,68,2.0,6.0,58,0.00,,SCT250,0.00,VWS V14.01,2013-07-04 07:26:00,
2013-07-04 02:31:00,69.8,54.8,30.00,ENE,76,2.0,6.0,59,0.00,,SCT250,0.00,VWS V14.01,2013-07-04 07:31:00,
2013-07-04 02:36:00,69.4,55.4,30.00,East,79,5.0,6.0,61,0.00,,SCT250,0.00,VWS V14.01,2013-07-04 07:36:00,
2013-07-04 02:41:00,69.4,54.9,30.00,East,82,2.0,6.0,60,0.00,,SCT250,0.00,VWS V14.01,2013-07-04 07:41:00,
2013-07-04 02:46:00,69.3,54.8,30.00,East,79,2.0,6.0,60,0.00,,SCT250,0.00,VWS V14.01,2013-07-04 07:46:00,
2013-07-04 02:51:00,69.3,54.8,30.00,ENE,69,2.0,6.0,60,0.00,,SCT250,0.00,VWS V14.01,2013-07-04 07:51:00,
2013-07-04 02:56:00,69.1,55.1,30.00,ENE,69,0.0,6.0,61,0.00,,SCT250,0.00,VWS V14.01,2013-07-04 07:56:00,
2013-07-04 03:01:00,68.8,54.8,30.00,ENE,68,2.0,2.0,61,0.00,,SCT250,0.00,VWS V14.01,2013-07-04 08:01:00,
2013-07-04 03:06:00,68.6,55.1,30.00,ENE,68,0.0,5.0,62,0.00,,SCT250,0.00,VWS V14.01,2013-07-04 08:06:00,
2013-07-04 03:11:00,68.4,54.9,30.00,ENE,68,0.0,5.0,62,0.00,,SCT250,0.00,VWS V14.01,2013-07-04 08:11:00,
2013-07-04 03:16:00,68.4,54.4,29.99,East,86,0.0,5.0,61,0.00,,SCT250,0.00,VWS V14.01,2013-07-04 08:16:00,
2013-07-04 03:21:00,68.6,55.1,29.99,East,100,0.0,5.0,62,0.00,,SCT250,0.00,VWS V14.01,2013-07-04 08:21:00,
2013-07-04 03:26:00,68.6,55.1,29.99,East,82,3.0,5.0,62,0.00,,SCT250,0.00,VWS V14.01,2013-07-04 08:26:00,
2013-07-04 03:31:00,68.8,55.3,29.99,ENE,61,0.0,5.0,62,0.00,,SCT250,0.00,VWS V14.01,2013-07-04 08:31:00,
2013-07-04 03:37:00,68.6,55.1,29.99,ENE,61,0.0,5.0,62,0.00,,SCT250,0.00,VWS V14.01,2013-07-04 08:37:00,
2013-07-04 03:42:00,68.6,55.1,29.99,ENE,66,2.0,5.0,62,0.00,,SCT250,0.00,VWS V14.01,2013-07-04 08:42:00,
2013-07-04 03:47:00,68.4,55.3,29.99,East,90,2.0,5.0,63,0.00,,SCT250,0.00,VWS V14.01,2013-07-04 08:47:00,
2013-07-04 03:52:00,68.1,55.5,29.99,East,82,0.0,5.0,64,0.00,,SCT250,0.00,VWS V14.01,2013-07-04 08:52:00,
2013-07-04 03:57:00,67.9,56.1,29.99,ENE,66,0.0,5.0,66,0.00,,SCT250,0.00,VWS V14.01,2013-07-04 08:57:00,
2013-07-04 04:02:00,67.8,55.6,29.99,ENE,66,0.0,2.0,65,0.00,,SCT250,0.00,VWS V14.01,2013-07-04 09:02:00,
2013-07-04 04:07:00,67.4,55.7,29.99,ENE,66,0.0,3.0,66,0.00,,SCT250,0.00,VWS V14.01,2013-07-04 09:07:00,
2013-07-04 04:12:00,67.3,55.6,29.99,ENE,66,0.0,3.0,66,0.00,,SCT250,0.00,VWS V14.01,2013-07-04 09:12:00,
2013-07-04 04:17:00,67.3,55.6,30.00,ESE,110,1.0,5.0,66,0.00,,SCT250,0.00,VWS V14.01,2013-07-04 09:17:00,
2013-07-04 04:22:00,67.4,55.7,30.00,East,89,0.0,5.0,66,0.00,,SCT250,0.00,VWS V14.01,2013-07-04 09:22:00,
2013-07-04 04:27:00,67.6,55.4,30.00,ESE,102,0.0,5.0,65,0.00,,SCT250,0.00,VWS V14.01,2013-07-04 09:27:00,
2013-07-04 04:32:00,67.4,55.7,29.99,ESE,113,2.0,5.0,66,0.00,,SCT250,0.00,VWS V14.01,2013-07-04 09:32:00,
2013-07-04 04:37:00,67.4,55.7,29.99,SE,133,0.0,5.0,66,0.00,,SCT250,0.00,VWS V14.01,2013-07-04 09:37:00,
2013-07-04 04:42:00,67.4,56.1,29.99,ESE,113,2.0,5.0,67,0.00,,SCT250,0.00,VWS V14.01,2013-07-04 09:42:00,
2013-07-04 04:47:00,67.3,56.4,30.00,ESE,104,1.0,5.0,68,0.00,,SCT250,0.00,VWS V14.01,2013-07-04 09:47:00,
2013-07-04 04:52:00,67.1,56.2,30.00,East,83,2.0,5.0,68,0.00,,SCT250,0.00,VWS V14.01,2013-07-04 09:52:00,
2013-07-04 04:57:00,66.9,56.4,30.00,ESE,102,0.0,5.0,69,0.00,,SCT250,0.00,VWS V14.01,2013-07-04 09:57:00,
2013-07-04 05:02:00,66.8,56.3,29.99,SE,128,1.0,2.0,69,0.00,,SCT250,0.00,VWS V14.01,2013-07-04 10:02:00,
2013-07-04 05:07:00,66.6,56.5,29.99,ESE,120,0.0,2.0,70,0.00,,SCT250,0.00,VWS V14.01,2013-07-04 10:07:00,
2013-07-04 05:12:00,66.4,56.7,29.99,East,95,1.0,5.0,71,0.00,,SCT250,0.00,VWS V14.01,2013-07-04 10:12:00,
2013-07-04 05:17:00,66.4,56.3,30.00,ESE,106,0.0,5.0,70,0.00,,SCT250,0.00,VWS V14.01,2013-07-04 10:17:00,
2013-07-04 05:22:00,66.3,56.2,30.00,South,182,0.0,5.0,70,0.00,,SCT250,0.00,VWS V14.01,2013-07-04 10:22:00,
2013-07-04 05:28:00,66.1,56.4,30.00,South,172,0.0,5.0,71,0.00,,SCT250,0.00,VWS V14.01,2013-07-04 10:28:00,
2013-07-04 05:33:00,66.0,56.3,30.01,South,169,0.0,5.0,71,0.00,,SCT250,0.00,VWS V14.01,2013-07-04 10:33:00,
2013-07-04 05:38:00,65.8,56.5,30.01,SSE,164,0.0,5.0,72,0.00,,SCT250,0.00,VWS V14.01,2013-07-04 10:38:00,
2013-07-04 05:43:00,65.6,56.7,30.01,SE,138,0.0,5.0,73,0.00,,SCT250,0.00,VWS V14.01,2013-07-04 10:43:00,
2013-07-04 05:48:00,65.5,56.6,30.01,SE,138,0.0,5.0,73,0.00,,SCT250,0.00,VWS V14.01,2013-07-04 10:48:00,
2013-07-04 05:53:00,65.3,56.4,30.01,SE,138,1.0,5.0,73,0.00,,SCT250,0.00,VWS V14.01,2013-07-04 10:53:00,
2013-07-04 05:58:00,65.5,56.6,30.01,ESE,106,1.0,6.0,73,0.00,,SCT250,0.00,VWS V14.01,2013-07-04 10:58:00,
2013-07-04 06:03:00,65.5,56.6,30.01,ESE,103,0.0,2.0,73,0.00,,SCT250,0.00,VWS V14.01,2013-07-04 11:03:00,
2013-07-04 06:08:00,65.5,56.6,30.01,SE,140,0.0,2.0,73,0.00,,SCT250,0.00,VWS V14.01,2013-07-04 11:08:00,
2013-07-04 06:13:00,65.6,56.7,30.01,SE,126,0.0,5.0,73,0.00,,SCT250,0.00,VWS V14.01,2013-07-04 11:13:00,
2013-07-04 06:18:00,65.8,56.9,30.01,ESE,116,1.0,5.0,73,0.00,,SCT250,0.00,VWS V14.01,2013-07-04 11:18:00,
2013-07-04 06:23:00,65.8,56.9,30.01,ESE,114,0.0,7.0,73,0.00,,SCT250,0.00,VWS V14.01,2013-07-04 11:23:00,
2013-07-04 06:28:00,65.8,56.5,30.01,SE,127,2.0,7.0,72,0.00,,SCT250,0.00,VWS V14.01,2013-07-04 11:28:00,
2013-07-04 06:33:00,65.8,56.5,30.01,South,172,0.0,7.0,72,0.00,,SCT250,0.00,VWS V14.01,2013-07-04 11:33:00,
2013-07-04 06:38:00,65.8,56.9,30.01,SE,134,0.0,7.0,73,0.00,,SCT250,0.00,VWS V14.01,2013-07-04 11:38:00,
2013-07-04 06:43:00,65.8,56.9,30.01,SE,133,0.0,7.0,73,0.00,,SCT250,0.00,VWS V14.01,2013-07-04 11:43:00,
2013-07-04 06:48:00,65.8,56.9,30.02,SE,128,0.0,7.0,73,0.00,,SCT250,0.00,VWS V14.01,2013-07-04 11:48:00,
2013-07-04 06:53:00,66.0,57.5,30.02,SSE,164,1.0,7.0,74,0.00,,SCT250,0.00,VWS V14.01,2013-07-04 11:53:00,
2013-07-04 06:58:00,66.0,57.5,30.02,SSE,154,0.0,7.0,74,0.00,,SCT250,0.00,VWS V14.01,2013-07-04 11:58:00,
2013-07-04 07:03:00,66.0,57.5,30.02,SE,130,0.0,2.0,74,0.00,,FEW050,0.00,VWS V14.01,2013-07-04 12:03:00,
2013-07-04 07:08:00,66.0,57.5,30.02,SE,124,0.0,2.0,74,0.00,,FEW050,0.00,VWS V14.01,2013-07-04 12:08:00,
2013-07-04 07:14:00,66.1,57.6,30.02,ESE,119,0.0,2.0,74,0.00,,FEW050,0.00,VWS V14.01,2013-07-04 12:14:00,
2013-07-04 07:19:00,66.3,58.2,30.03,SE,137,0.0,5.0,75,0.00,,FEW050,0.00,VWS V14.01,2013-07-04 12:19:00,
2013-07-04 07:24:00,66.8,57.9,30.03,ESE,121,0.0,5.0,73,0.00,,FEW050,0.00,VWS V14.01,2013-07-04 12:24:00,
2013-07-04 07:29:00,66.9,57.6,30.03,SE,133,5.0,5.0,72,0.00,,FEW050,0.00,VWS V14.01,2013-07-04 12:29:00,
2013-07-04 07:34:00,67.1,57.8,30.03,East,88,0.0,5.0,72,0.00,,FEW050,0.00,VWS V14.01,2013-07-04 12:34:00,
2013-07-04 07:39:00,67.4,57.7,30.03,East,86,2.0,6.0,71,0.00,,FEW050,0.00,VWS V14.01,2013-07-04 12:39:00,
2013-07-04 07:44:00,67.8,58.1,30.03,ESE,123,5.0,6.0,71,0.00,,FEW050,0.00,VWS V14.01,2013-07-04 12:44:00,
2013-07-04 07:49:00,68.3,58.2,30.03,SE,137,0.0,6.0,70,0.00,,FEW050,0.00,VWS V14.01,2013-07-04 12:49:00,
2013-07-04 07:54:00,68.8,57.8,30.03,South,172,1.0,7.0,68,0.00,,FEW050,0.00,VWS V14.01,2013-07-04 12:54:00,
2013-07-04 07:59:00,69.4,58.8,30.03,East,80,2.0,7.0,69,0.00,,FEW050,0.00,VWS V14.01,2013-07-04 12:59:00,
2013-07-04 08:04:00,69.8,59.2,30.03,East,86,2.0,5.0,69,0.00,,FEW050,0.00,VWS V14.01,2013-07-04 13:04:00,
2013-07-04 08:09:00,70.1,59.5,30.03,ESE,117,3.0,5.0,69,0.00,,FEW050,0.00,VWS V14.01,2013-07-04 13:09:00,
2013-07-04 08:14:00,70.6,60.3,30.04,East,90,2.0,5.0,70,0.00,,FEW050,0.00,VWS V14.01,2013-07-04 13:14:00,
2013-07-04 08:19:00,70.8,59.7,30.04,East,83,3.0,6.0,68,0.00,,FEW050,0.00,VWS V14.01,2013-07-04 13:19:00,
2013-07-04 08:24:00,71.1,60.0,30.04,ESE,103,0.0,6.0,68,0.00,,FEW050,0.00,VWS V14.01,2013-07-04 13:24:00,
2013-07-04 08:29:00,71.5,60.4,30.04,SSE,158,2.0,7.0,68,0.00,,FEW050,0.00,VWS V14.01,2013-07-04 13:29:00,
2013-07-04 08:34:00,72.0,60.5,30.04,SE,128,0.0,7.0,67,0.00,,FEW050,0.00,VWS V14.01,2013-07-04 13:34:00,
2013-07-04 08:39:00,72.5,60.9,30.04,South,172,0.0,7.0,67,0.00,,FEW050,0.00,VWS V14.01,2013-07-04 13:39:00,
2013-07-04 08:44:00,73.0,61.4,30.04,SSE,161,3.0,7.0,67,0.00,,FEW050,0.00,VWS V14.01,2013-07-04 13:44:00,
2013-07-04 08:49:00,73.3,61.3,30.04,ESE,121,0.0,7.0,66,0.00,,FEW050,0.00,VWS V14.01,2013-07-04 13:49:00,
2013-07-04 08:54:00,73.7,60.8,30.04,ESE,123,0.0,7.0,64,0.00,,FEW050,0.00,VWS V14.01,2013-07-04 13:54:00,
2013-07-04 09:00:00,73.9,61.4,30.04,SSE,167,1.0,7.0,65,0.00,,FEW050,0.00,VWS V14.01,2013-07-04 14:00:00,
2013-07-04 09:05:00,74.4,61.0,30.04,SSE,152,0.0,5.0,63,0.00,,FEW050,0.00,VWS V14.01,2013-07-04 14:05:00,
2013-07-04 09:10:00,74.9,61.9,30.04,South,178,0.0,5.0,64,0.00,,FEW050,0.00,VWS V14.01,2013-07-04 14:10:00,
2013-07-04 09:15:00,75.3,62.3,30.04,SSE,157,1.0,5.0,64,0.00,,FEW050,0.00,VWS V14.01,2013-07-04 14:15:00,
2013-07-04 09:20:00,75.6,62.6,30.04,South,178,0.0,5.0,64,0.00,,FEW050,0.00,VWS V14.01,2013-07-04 14:20:00,
2013-07-04 09:25:00,76.0,62.5,30.04,SSW,206,0.0,5.0,63,0.00,,FEW050,0.00,VWS V14.01,2013-07-04 14:25:00,
2013-07-04 09:30:00,76.5,63.0,30.04,SSE,168,2.0,5.0,63,0.00,,FEW050,0.00,VWS V14.01,2013-07-04 14:30:00,
2013-07-04 09:35:00,76.5,62.5,30.04,SSE,164,1.0,10.0,62,0.00,,FEW050,0.00,VWS V14.01,2013-07-04 14:35:00,
2013-07-04 09:40:00,76.3,62.3,30.04,South,175,3.0,10.0,62,0.00,,FEW050,0.00,VWS V14.01,2013-07-04 14:40:00,
2013-07-04 09:45:00,77.0,62.5,30.04,ESE,116,0.0,10.0,61,0.00,,FEW050,0.00,VWS V14.01,2013-07-04 14:45:00,
2013-07-04 09:50:00,77.4,62.4,30.04,SSW,210,0.0,11.0,60,0.00,,FEW050,0.00,VWS V14.01,2013-07-04 14:50:00,
2013-07-04 09:55:00,77.7,61.3,30.04,South,182,0.0,11.0,57,0.00,,FEW050,0.00,VWS V14.01,2013-07-04 14:55:00,
2013-07-04 10:00:00,77.9,62.4,30.04,SSE,154,1.0,2.0,59,0.00,,FEW050,0.00,VWS V14.01,2013-07-04 15:00:00,
2013-07-04 10:05:00,78.5,63.5,30.04,South,179,3.0,7.0,60,0.00,,FEW100,0.00,VWS V14.01,2013-07-04 15:05:00,
2013-07-04 10:10:00,78.5,62.5,30.04,ESE,107,0.0,14.0,58,0.00,,FEW100,0.00,VWS V14.01,2013-07-04 15:10:00,
2013-07-04 10:15:00,78.8,62.8,30.03,SSE,157,0.0,14.0,58,0.00,,FEW100,0.00,VWS V14.01,2013-07-04 15:15:00,
2013-07-04 10:20:00,79.4,61.8,30.03,SSE,157,7.0,14.0,55,0.00,,FEW100,0.00,VWS V14.01,2013-07-04 15:20:00,
2013-07-04 10:25:00,79.0,62.0,30.03,South,171,5.0,14.0,56,0.00,,FEW100,0.00,VWS V14.01,2013-07-04 15:25:00,
2013-07-04 10:30:00,79.0,61.5,30.03,South,191,10.0,14.0,55,0.00,,FEW100,0.00,VWS V14.01,2013-07-04 15:30:00,
2013-07-04 10:36:00,79.6,62.0,30.03,SSE,168,0.0,14.0,55,0.00,,FEW100,0.00,VWS V14.01,2013-07-04 15:36:00,
2013-07-04 10:41:00,79.8,63.2,30.03,SSW,206,5.0,14.0,57,0.00,,FEW100,0.00,VWS V14.01,2013-07-04 15:41:00,
2013-07-04 10:46:00,80.3,62.7,30.03,SSW,200,2.0,14.0,55,0.00,,FEW100,0.00,VWS V14.01,2013-07-04 15:46:00,
2013-07-04 10:51:00,80.5,62.9,30.03,SSW,192,8.0,14.0,55,0.00,,FEW100,0.00,VWS V14.01,2013-07-04 15:51:00,
2013-07-04 10:56:00,80.9,63.2,30.03,SSE,168,1.0,14.0,55,0.00,,FEW100,0.00,VWS V14.01,2013-07-04 15:56:00,
2013-07-04 11:01:00,81.1,62.9,30.03,SE,131,5.0,8.0,54,0.00,,CLR,0.00,VWS V14.01,2013-07-04 16:01:00,
2013-07-04 11:06:00,81.4,63.7,30.03,South,185,1.0,8.0,55,0.00,,CLR,0.00,VWS V14.01,2013-07-04 16:06:00,
2013-07-04 11:11:00,81.8,63.0,30.03,SSE,160,0.0,8.0,53,0.00,,CLR,0.00,VWS V14.01,2013-07-04 16:11:00,
2013-07-04 11:16:00,81.8,64.1,30.03,SSE,148,1.0,8.0,55,0.00,,CLR,0.00,VWS V14.01,2013-07-04 16:16:00,
2013-07-04 11:21:00,82.2,64.4,30.03,South,184,0.0,8.0,55,0.00,,CLR,0.00,VWS V14.01,2013-07-04 16:21:00,
2013-07-04 11:26:00,82.6,64.3,30.03,South,184,8.0,8.0,54,0.00,,CLR,0.00,VWS V14.01,2013-07-04 16:26:00,
2013-07-04 11:31:00,82.4,63.6,30.02,South,174,5.0,14.0,53,0.00,,CLR,0.00,VWS V14.01,2013-07-04 16:31:00,
2013-07-04 11:36:00,82.6,64.3,30.02,South,182,0.0,14.0,54,0.00,,CLR,0.00,VWS V14.01,2013-07-04 16:36:00,
2013-07-04 11:41:00,82.8,63.9,30.02,SSW,202,5.0,14.0,53,0.00,,CLR,0.00,VWS V14.01,2013-07-04 16:41:00,
2013-07-04 11:46:00,82.8,64.5,30.02,SSW,196,0.0,14.0,54,0.00,,CLR,0.00,VWS V14.01,2013-07-04 16:46:00,
2013-07-04 11:51:00,83.0,63.6,30.02,SW,217,2.0,14.0,52,0.00,,CLR,0.00,VWS V14.01,2013-07-04 16:51:00,
2013-07-04 11:56:00,82.8,62.8,30.02,South,186,5.0,14.0,51,0.00,,CLR,0.00,VWS V14.01,2013-07-04 16:56:00,
2013-07-04 12:01:00,82.6,62.1,30.02,WSW,248,0.0,7.0,50,0.00,,SCT100,0.00,VWS V14.01,2013-07-04 17:01:00,
2013-07-04 12:06:00,82.8,62.3,30.02,SSW,196,8.0,11.0,50,0.00,,SCT100,0.00,VWS V14.01,2013-07-04 17:06:00,
2013-07-04 12:11:00,83.4,64.5,30.02,South,175,2.0,11.0,53,0.00,,SCT100,0.00,VWS V14.01,2013-07-04 17:11:00,
2013-07-04 12:16:00,83.2,63.2,30.02,South,186,5.0,11.0,51,0.00,,SCT100,0.00,VWS V14.01,2013-07-04 17:16:00,
2013-07-04 12:22:00,83.6,65.2,30.02,South,169,2.0,11.0,54,0.00,,SCT100,0.00,VWS V14.01,2013-07-04 17:22:00,
2013-07-04 12:27:00,84.1,64.0,30.02,ESE,117,0.0,11.0,51,0.00,,SCT100,0.00,VWS V14.01,2013-07-04 17:27:00,
2013-07-04 12:32:00,84.1,64.0,30.01,SE,128,1.0,13.0,51,0.00,,SCT100,0.00,VWS V14.01,2013-07-04 17:32:00,
2013-07-04 12:37:00,84.1,63.5,30.01,SSW,209,12.0,13.0,50,0.00,,SCT100,0.00,VWS V14.01,2013-07-04 17:37:00,
2013-07-04 12:42:00,84.0,63.9,30.01,SSW,210,8.0,13.0,51,0.00,,SCT100,0.00,VWS V14.01,2013-07-04 17:42:00,
2013-07-04 12:47:00,84.3,64.8,30.00,South,184,0.0,13.0,52,0.00,,SCT100,0.00,VWS V14.01,2013-07-04 17:47:00,
2013-07-04 12:52:00,84.7,64.6,30.00,SSW,202,5.0,13.0,51,0.00,,SCT100,0.00,VWS V14.01,2013-07-04 17:52:00,
2013-07-04 12:57:00,85.7,64.9,30.00,South,189,2.0,13.0,50,0.00,,SCT100,0.00,VWS V14.01,2013-07-04 17:57:00,
2013-07-04 13:02:00,85.5,64.2,30.00,SSW,209,0.0,5.0,49,0.00,,SCT100,0.00,VWS V14.01,2013-07-04 18:02:00,
2013-07-04 13:07:00,85.3,62.2,30.00,SE,144,5.0,11.0,46,0.00,,SCT100,0.00,VWS V14.01,2013-07-04 18:07:00,
2013-07-04 13:12:00,84.9,62.4,30.00,South,182,5.0,11.0,47,0.00,,SCT100,0.00,VWS V14.01,2013-07-04 18:12:00,
2013-07-04 13:17:00,84.7,62.9,30.00,South,182,5.0,11.0,48,0.00,,SCT100,0.00,VWS V14.01,2013-07-04 18:17:00,
2013-07-04 13:22:00,85.3,62.8,30.00,SSW,212,2.0,11.0,47,0.00,,SCT100,0.00,VWS V14.01,2013-07-04 18:22:00,
2013-07-04 13:27:00,85.9,62.7,30.00,SW,220,10.0,11.0,46,0.00,,SCT100,0.00,VWS V14.01,2013-07-04 18:27:00,
2013-07-04 13:32:00,86.1,64.1,29.99,South,179,1.0,11.0,48,0.00,,SCT100,0.00,VWS V14.01,2013-07-04 18:32:00,
2013-07-04 13:37:00,86.3,62.5,29.99,South,184,2.0,11.0,45,0.00,,SCT100,0.00,VWS V14.01,2013-07-04 18:37:00,
2013-07-04 13:42:00,86.3,60.5,29.99,South,171,2.0,12.0,42,0.00,,SCT100,0.00,VWS V14.01,2013-07-04 18:42:00,
2013-07-04 13:47:00,86.3,61.2,29.98,South,191,0.0,12.0,43,0.00,,SCT100,0.00,VWS V14.01,2013-07-04 18:47:00,
2013-07-04 13:53:00,86.1,60.3,29.98,SSW,206,0.0,12.0,42,0.00,,SCT100,0.00,VWS V14.01,2013-07-04 18:53:00,
2013-07-04 13:58:00,86.7,62.8,29.98,East,85,2.0,12.0,45,0.00,,SCT100,0.00,VWS V14.01,2013-07-04 18:58:00,
2013-07-04 14:00:00,87.0,62.5,29.98,South,172,0.0,12.0,44,0.00,,OVC041CB,0.00,VWS V14.01,2013-07-04 19:00:00,
2013-07-04 14:03:00,87.2,62.0,29.98,SSE,164,1.0,3.0,43,0.00,,BKN085,0.00,VWS V14.01,2013-07-04 19:03:00,
2013-07-04 14:08:00,87.6,63.7,29.98,SE,144,0.0,5.0,45,0.00,,BKN085,0.00,VWS V14.01,2013-07-04 19:08:00,
2013-07-04 14:13:00,87.4,61.5,29.98,SSW,203,6.0,10.0,42,0.00,,BKN085,0.00,VWS V14.01,2013-07-04 19:13:00,
2013-07-04 14:18:00,87.4,64.1,29.98,South,181,0.0,10.0,46,0.00,,BKN085,0.00,VWS V14.01,2013-07-04 19:18:00,
2013-07-04 14:23:00,87.6,61.0,29.98,South,185,7.0,10.0,41,0.00,,BKN085,0.00,VWS V14.01,2013-07-04 19:23:00,
2013-07-04 14:28:00,87.8,60.5,29.98,South,182,5.0,10.0,40,0.00,,BKN085,0.00,VWS V14.01,2013-07-04 19:28:00,
2013-07-04 14:33:00,87.8,61.9,29.97,SSW,210,0.0,10.0,42,0.00,,BKN085,0.00,VWS V14.01,2013-07-04 19:33:00,
2013-07-04 14:38:00,88.2,61.5,29.97,ESE,120,1.0,10.0,41,0.00,,BKN085,0.00,VWS V14.01,2013-07-04 19:38:00,
2013-07-04 14:43:00,88.0,64.7,29.97,SE,141,0.0,10.0,46,0.00,,BKN085,0.00,VWS V14.01,2013-07-04 19:43:00,
2013-07-04 14:48:00,88.0,63.4,29.97,SE,130,2.0,10.0,44,0.00,,BKN085,0.00,VWS V14.01,2013-07-04 19:48:00,
2013-07-04 14:53:00,88.2,62.9,29.97,South,171,3.0,10.0,43,0.00,,BKN085,0.00,VWS V14.01,2013-07-04 19:53:00,
2013-07-04 14:58:00,88.2,60.8,29.97,SE,131,2.0,12.0,40,0.00,,BKN085,0.00,VWS V14.01,2013-07-04 19:58:00,
2013-07-04 15:03:00,88.0,58.5,29.96,SSW,203,0.0,12.0,37,0.00,,SCT250,0.00,VWS V14.01,2013-07-04 20:03:00,
2013-07-04 15:08:00,87.8,59.1,29.96,SE,140,2.0,12.0,38,0.00,,SCT250,0.00,VWS V14.01,2013-07-04 20:08:00,
2013-07-04 15:13:00,87.4,59.4,29.96,South,169,2.0,12.0,39,0.00,,SCT250,0.00,VWS V14.01,2013-07-04 20:13:00,
2013-07-04 15:18:00,88.2,62.2,29.95,East,92,2.0,12.0,42,0.00,,SCT250,0.00,VWS V14.01,2013-07-04 20:18:00,
2013-07-04 15:23:00,88.2,61.5,29.95,SSW,193,5.0,12.0,41,0.00,,SCT250,0.00,VWS V14.01,2013-07-04 20:23:00,
2013-07-04 15:29:00,87.8,60.5,29.95,South,182,2.0,12.0,40,0.00,,SCT250,0.00,VWS V14.01,2013-07-04 20:29:00,
2013-07-04 15:34:00,88.0,61.4,29.95,NE,48,0.0,12.0,41,0.00,,SCT250,0.00,VWS V14.01,2013-07-04 20:34:00,
2013-07-04 15:38:00,88.4,60.3,29.95,SSW,200,3.0,12.0,39,0.00,,SCT250,0.00,VWS V14.01,2013-07-04 20:38:00,
2013-07-04 15:43:00,88.4,59.6,29.95,SSW,208,0.0,12.0,38,0.00,,SCT250,0.00,VWS V14.01,2013-07-04 20:43:00,
2013-07-04 15:48:00,88.8,59.9,29.95,SSE,151,1.0,12.0,38,0.00,,SCT250,0.00,VWS V14.01,2013-07-04 20:48:00,
2013-07-04 15:53:00,88.8,59.9,29.95,ESE,110,3.0,12.0,38,0.00,,SCT250,0.00,VWS V14.01,2013-07-04 20:53:00,
2013-07-04 15:58:00,88.8,59.9,29.95,SSW,196,3.0,12.0,38,0.00,,SCT250,0.00,VWS V14.01,2013-07-04 20:58:00,
2013-07-04 16:03:00,88.6,59.0,29.94,SSW,209,0.0,2.0,37,0.00,,SCT250,0.00,VWS V14.01,2013-07-04 21:03:00,
2013-07-04 16:08:00,88.6,58.2,29.94,SSW,210,0.0,2.0,36,0.00,,SCT250,0.00,VWS V14.01,2013-07-04 21:08:00,
2013-07-04 16:13:00,87.8,59.1,29.94,SSW,209,0.0,2.0,38,0.00,,SCT250,0.00,VWS V14.01,2013-07-04 21:13:00,
2013-07-04 16:19:00,87.4,60.1,29.94,East,93,1.0,3.0,40,0.00,,SCT250,0.00,VWS V14.01,2013-07-04 21:19:00,
2013-07-04 16:24:00,88.0,61.4,29.94,ENE,69,5.0,7.0,41,0.00,,SCT250,0.00,VWS V14.01,2013-07-04 21:24:00,
2013-07-04 16:29:00,88.2,61.5,29.94,East,80,2.0,11.0,41,0.00,,SCT250,0.00,VWS V14.01,2013-07-04 21:29:00,
2013-07-04 16:34:00,87.6,59.6,29.94,ENE,75,2.0,11.0,39,0.00,,SCT250,0.00,VWS V14.01,2013-07-04 21:34:00,
2013-07-04 16:39:00,86.7,59.5,29.94,ENE,68,2.0,11.0,40,0.00,,SCT250,0.00,VWS V14.01,2013-07-04 21:39:00,
2013-07-04 16:44:00,86.7,60.2,29.94,East,100,1.0,11.0,41,0.00,,SCT250,0.00,VWS V14.01,2013-07-04 21:44:00,
2013-07-04 16:49:00,87.6,61.7,29.94,ESE,116,3.0,11.0,42,0.00,,SCT250,0.00,VWS V14.01,2013-07-04 21:49:00,
2013-07-04 16:54:00,87.6,60.3,29.94,ESE,117,0.0,11.0,40,0.00,,SCT250,0.00,VWS V14.01,2013-07-04 21:54:00,
2013-07-04 16:59:00,87.6,62.4,29.93,ENE,65,2.0,11.0,43,0.00,,SCT250,0.00,VWS V14.01,2013-07-04 21:59:00,
2013-07-04 17:04:00,87.4,60.1,29.93,East,96,2.0,7.0,40,0.00,,SCT250,0.00,VWS V14.01,2013-07-04 22:04:00,
2013-07-04 17:09:00,87.6,61.0,29.93,ENE,76,1.0,7.0,41,0.00,,SCT250,0.00,VWS V14.01,2013-07-04 22:09:00,
2013-07-04 17:14:00,87.2,60.0,29.93,ESE,102,1.0,7.0,40,0.00,,SCT250,0.00,VWS V14.01,2013-07-04 22:14:00,
2013-07-04 17:19:00,87.0,61.8,29.93,SE,127,2.0,7.0,43,0.00,,SCT250,0.00,VWS V14.01,2013-07-04 22:19:00,
2013-07-04 17:24:00,86.3,61.2,29.93,WSW,237,2.0,7.0,43,0.00,,SCT250,0.00,VWS V14.01,2013-07-04 22:24:00,
2013-07-04 17:29:00,85.9,61.5,29.93,ENE,71,5.0,10.0,44,0.00,,SCT250,0.00,VWS V14.01,2013-07-04 22:29:00,
2013-07-04 17:34:00,85.5,62.4,29.93,ESE,116,0.0,10.0,46,0.00,,SCT250,0.00,VWS V14.01,2013-07-04 22:34:00,
2013-07-04 17:39:00,84.9,62.4,29.93,SE,141,6.0,13.0,47,0.00,,SCT250,0.00,VWS V14.01,2013-07-04 22:39:00,
2013-07-04 17:45:00,84.7,61.7,29.92,ENE,76,5.0,13.0,46,0.00,,SCT250,0.00,VWS V14.01,2013-07-04 22:45:00,
2013-07-04 17:50:00,84.3,61.9,29.92,ENE,73,2.0,13.0,47,0.00,,SCT250,0.00,VWS V14.01,2013-07-04 22:50:00,
2013-07-04 17:55:00,84.1,61.1,29.92,East,89,6.0,14.0,46,0.00,,SCT250,0.00,VWS V14.01,2013-07-04 22:55:00,
2013-07-04 18:00:00,83.4,61.1,29.92,South,181,10.0,14.0,47,0.00,,SCT250,0.00,VWS V14.01,2013-07-04 23:00:00,
2013-07-04 18:05:00,83.0,61.3,29.92,NE,45,3.0,11.0,48,0.00,,SHRA,0.00,VWS V14.01,2013-07-04 23:05:00,
2013-07-04 18:10:00,82.4,60.2,29.92,ENE,68,2.0,14.0,47,0.00,,SHRA,0.00,VWS V14.01,2013-07-04 23:10:00,
2013-07-04 18:15:00,81.8,63.0,29.94,ENE,73,0.0,14.0,53,0.00,,SHRA,0.00,VWS V14.01,2013-07-04 23:15:00,
2013-07-04 18:20:00,79.8,65.6,29.94,ENE,72,1.0,14.0,62,0.00,,SHRA,0.00,VWS V14.01,2013-07-04 23:20:00,
2013-07-04 18:25:00,77.4,64.7,29.94,NNE,28,2.0,14.0,65,0.01,,SHRA,0.01,VWS V14.01,2013-07-04 23:25:00,
2013-07-04 18:30:00,75.1,64.7,29.95,North,353,1.0,14.0,70,0.02,,SHRA,0.02,VWS V14.01,2013-07-04 23:30:00,
2013-07-04 18:35:00,73.2,64.4,29.95,NNW,347,0.0,14.0,74,0.04,,SHRA,0.04,VWS V14.01,2013-07-04 23:35:00,
2013-07-04 18:40:00,71.6,63.6,29.95,NNE,25,0.0,14.0,76,0.05,,SHRA,0.05,VWS V14.01,2013-07-04 23:40:00,